N-SAT-110 (JCSAT-110)

Last updated on Feb. 5, 2019, 3:03 a.m. UTC

1 26559U 00060A   19034.85548334 -.00000110  00000-0  00000-0 0  9993
2 26559   0.0889  99.3305 0005343 261.8735  90.7525  0.99183543 67137
UTC
Height (km)
Latitude
Longitude
Inclination
Orbital Period
UTC large
Height (km)
Speed (km/s)
/
Latitude / Longitude
Inclination (degrees)
Orbital Period (minutes)
Azimuth
Elevation
Range (km)
Doppler Factor
iOS Compass Heading
iOS Angle

Next 30 passes for location: Hong Kong

Rise time Rise Azimuth (degrees) Set time Set Azimuth (degrees) Duration Max altitude (degrees)

No matching passes for this satellites